| << 2.5. | 4.5. >> |
|
Windrichtung in Grad |
Windgeschw. in m/s |
Windspitzen in m/s |
Temp.Minima in °C |
Temperatur in °C |
Temp.Maxima in °C |
Luftfeuchte in % |
Luftdruck in hPa |
Taupunkt in °C |
Niederschlag in mm |
|
|---|---|---|---|---|---|---|---|---|---|---|
| ▲ Maxima | 1,6 | 4,7 | 19,4 | 19,6 | 19,7 | 91,1 | 1001,7 | 14,0 | 0,0 | |
| Ø Mittelwert | 182,9 | 0,6 | 1,6 | 14,8 | 15,0 | 15,2 | 71,5 | 1000,0 | 10,9 | 0,0 |
| ▼ Minima | 0,0 | 0,4 | 11,5 | 11,7 | 11,8 | 43,7 | 999,4 | 6,8 | 0,0 | |
| ∑ Summe | 0,0 |
| Uhrzeit (MEZ) | Windrichtung in Grad | Windgeschw. in m/s | Windspitzen in m/s | Temp.Minima in °C | Temperatur in °C | Temp.Maxima in °C | Luftfeuchte in % | Luftdruck in hPa | Taupunkt in °C | Niederschlag in mm |
|---|---|---|---|---|---|---|---|---|---|---|
| 00:00 | 96,1 | 0,2 | 0,7 | 14,3 | 14,5 | 14,7 | 80,2 | 1001,7 | 12,8 | 0,0 |
| 00:10 | 211,5 | 0,3 | 0,8 | 13,9 | 14,2 | 14,5 | 81,5 | 1001,6 | 12,7 | 0,0 |
| 00:20 | 190,8 | 0,2 | 0,7 | 13,8 | 13,9 | 14,1 | 82,6 | 1001,4 | 12,7 | 0,0 |
| 00:30 | 107,7 | 0,2 | 0,8 | 13,8 | 14,0 | 14,1 | 83,1 | 1001,3 | 12,8 | 0,0 |
| 00:40 | 119,8 | 0,4 | 0,9 | 13,9 | 14,0 | 14,2 | 82,9 | 1001,2 | 12,8 | 0,0 |
| 00:50 | 142,7 | 0,4 | 1,4 | 13,7 | 13,8 | 14,1 | 83,6 | 1001,2 | 12,7 | 0,0 |
| 01:00 | 126,7 | 0,7 | 2,3 | 13,4 | 13,6 | 13,8 | 85,0 | 1001,2 | 12,6 | 0,0 |
| 01:10 | 134,6 | 0,9 | 1,8 | 13,4 | 13,5 | 13,8 | 87,2 | 1001,0 | 12,9 | 0,0 |
| 01:20 | 141,4 | 0,9 | 1,8 | 13,2 | 13,3 | 13,6 | 88,4 | 1000,9 | 12,9 | 0,0 |
| 01:30 | 133,6 | 0,7 | 1,7 | 12,8 | 13,1 | 13,4 | 89,6 | 1000,7 | 13,0 | 0,0 |
| 01:40 | 124,9 | 0,8 | 1,8 | 12,8 | 13,0 | 13,2 | 90,5 | 1000,6 | 13,0 | 0,0 |
| 01:50 | 158,2 | 0,4 | 1,0 | 12,7 | 12,9 | 13,1 | 91,0 | 1000,6 | 13,1 | 0,0 |
| 02:00 | 135,1 | 0,4 | 1,3 | 12,8 | 12,9 | 13,1 | 91,1 | 1000,6 | 13,1 | 0,0 |
| 02:10 | 135,5 | 0,4 | 1,1 | 12,8 | 12,9 | 13,0 | 91,1 | 1000,6 | 13,2 | 0,0 |
| 02:20 | 126,3 | 0,4 | 1,0 | 12,8 | 12,9 | 13,0 | 91,0 | 1000,6 | 13,1 | 0,0 |
| 02:30 | 24,6 | 0,6 | 1,1 | 12,7 | 12,9 | 13,1 | 90,7 | 1000,6 | 13,0 | 0,0 |
| 02:40 | 48,0 | 0,2 | 0,5 | 12,6 | 12,7 | 12,9 | 91,1 | 1000,5 | 13,1 | 0,0 |
| 02:50 | 356,5 | 0,2 | 0,7 | 12,7 | 12,8 | 12,9 | 90,6 | 1000,5 | 13,0 | 0,0 |
| 03:00 | 166,2 | 0,2 | 0,8 | 12,7 | 12,8 | 13,0 | 90,4 | 1000,5 | 13,1 | 0,0 |
| 03:10 | 164,2 | 0,3 | 1,2 | 12,7 | 12,9 | 13,1 | 89,6 | 1000,4 | 12,9 | 0,0 |
| 03:20 | 130,0 | 0,3 | 1,3 | 12,6 | 12,8 | 13,1 | 89,4 | 1000,2 | 12,8 | 0,0 |
| 03:30 | 171,8 | 0,3 | 0,9 | 12,6 | 12,7 | 12,9 | 89,7 | 1000,2 | 12,8 | 0,0 |
| 03:40 | 311,9 | 0,0 | 0,8 | 12,5 | 12,5 | 12,8 | 89,7 | 1000,2 | 12,6 | 0,0 |
| 03:50 | 151,0 | 0,0 | 0,4 | 12,6 | 12,7 | 12,8 | 89,6 | 1000,1 | 12,8 | 0,0 |
| 04:00 | 169,8 | 0,1 | 0,4 | 12,7 | 12,8 | 12,9 | 89,0 | 1000,0 | 12,8 | 0,0 |
| 04:10 | 156,1 | 0,2 | 1,0 | 12,6 | 12,7 | 12,9 | 88,8 | 1000,0 | 12,6 | 0,0 |
| 04:20 | 73,6 | 0,2 | 1,0 | 12,3 | 12,5 | 12,8 | 88,9 | 1000,0 | 12,5 | 0,0 |
| 04:30 | 150,9 | 0,3 | 0,8 | 12,2 | 12,3 | 12,5 | 89,4 | 999,8 | 12,3 | 0,0 |
| 04:40 | 167,5 | 0,2 | 0,9 | 12,0 | 12,2 | 12,3 | 89,6 | 999,7 | 12,2 | 0,0 |
| 04:50 | 143,6 | 0,3 | 1,2 | 11,9 | 12,0 | 12,2 | 89,2 | 999,8 | 12,0 | 0,0 |
| 05:00 | 133,1 | 0,5 | 1,5 | 11,6 | 11,8 | 12,2 | 88,2 | 999,9 | 11,6 | 0,0 |
| 05:10 | 169,2 | 0,3 | 1,2 | 11,5 | 11,7 | 11,8 | 85,9 | 999,8 | 11,1 | 0,0 |
| 05:20 | 126,2 | 0,4 | 0,9 | 11,6 | 11,7 | 11,8 | 83,4 | 999,9 | 10,6 | 0,0 |
| 05:30 | 135,5 | 0,6 | 1,4 | 11,6 | 11,7 | 11,9 | 81,6 | 999,8 | 10,2 | 0,0 |
| 05:40 | 115,2 | 0,5 | 1,4 | 11,6 | 11,8 | 12,1 | 79,3 | 999,8 | 9,9 | 0,0 |
| 05:50 | 133,4 | 0,4 | 1,2 | 11,8 | 12,0 | 12,3 | 77,4 | 999,8 | 9,8 | 0,0 |
| 06:00 | 38,8 | 0,2 | 0,8 | 12,3 | 12,8 | 13,2 | 77,1 | 999,8 | 10,4 | 0,0 |
| 06:10 | 71,4 | 0,2 | 0,8 | 13,0 | 13,1 | 13,2 | 76,2 | 999,8 | 10,6 | 0,0 |
| 06:20 | 352,6 | 0,2 | 0,7 | 12,8 | 12,9 | 13,1 | 76,8 | 999,8 | 10,6 | 0,0 |
| 06:30 | 73,4 | 0,3 | 0,9 | 12,6 | 12,7 | 12,9 | 76,1 | 999,8 | 10,2 | 0,0 |
| 06:40 | 85,1 | 0,4 | 1,0 | 12,8 | 13,1 | 13,5 | 75,7 | 999,9 | 10,4 | 0,0 |
| 06:50 | 131,5 | 0,4 | 1,4 | 13,4 | 14,1 | 14,9 | 68,4 | 999,9 | 9,8 | 0,0 |
| 07:00 | 171,7 | 0,6 | 1,7 | 14,8 | 15,3 | 15,7 | 58,3 | 999,8 | 8,4 | 0,0 |
| 07:10 | 219,7 | 0,8 | 2,1 | 15,4 | 15,6 | 15,9 | 55,4 | 999,8 | 7,8 | 0,0 |
| 07:20 | 164,4 | 0,4 | 1,5 | 15,1 | 15,3 | 15,7 | 55,1 | 1000,0 | 7,6 | 0,0 |
| 07:30 | 154,1 | 0,3 | 0,9 | 15,3 | 15,5 | 15,7 | 55,4 | 999,9 | 7,9 | 0,0 |
| 07:40 | 193,1 | 0,3 | 0,9 | 15,3 | 15,5 | 15,7 | 55,1 | 1000,0 | 7,8 | 0,0 |
| 07:50 | 198,0 | 0,2 | 0,9 | 15,4 | 15,5 | 15,7 | 55,7 | 999,9 | 8,0 | 0,0 |
| Uhrzeit (MEZ) | Windrichtung in Grad | Windgeschw. in m/s | Windspitzen in m/s | Temp.Minima in °C | Temperatur in °C | Temp.Maxima in °C | Luftfeuchte in % | Luftdruck in hPa | Taupunkt in °C | Niederschlag in mm |
|---|---|---|---|---|---|---|---|---|---|---|
| 08:00 | 125,3 | 0,4 | 1,4 | 15,4 | 15,5 | 15,8 | 56,1 | 999,8 | 8,1 | 0,0 |
| 08:10 | 141,6 | 0,6 | 1,3 | 15,5 | 15,7 | 15,9 | 55,6 | 999,9 | 8,0 | 0,0 |
| 08:20 | 132,5 | 0,8 | 2,3 | 15,5 | 15,7 | 15,9 | 55,1 | 999,9 | 7,9 | 0,0 |
| 08:30 | 144,0 | 0,6 | 1,6 | 15,6 | 15,9 | 16,3 | 54,9 | 999,8 | 8,1 | 0,0 |
| 08:40 | 180,4 | 0,9 | 2,2 | 16,2 | 16,4 | 16,6 | 52,3 | 999,8 | 7,7 | 0,0 |
| 08:50 | 200,8 | 0,8 | 2,2 | 16,0 | 16,2 | 16,4 | 50,4 | 999,8 | 6,9 | 0,0 |
| 09:00 | 129,7 | 0,9 | 2,4 | 16,2 | 16,6 | 16,8 | 50,3 | 999,9 | 7,2 | 0,0 |
| 09:10 | 146,4 | 0,8 | 2,6 | 16,4 | 16,7 | 17,1 | 51,1 | 999,9 | 7,6 | 0,0 |
| 09:20 | 148,7 | 0,8 | 2,6 | 16,8 | 17,0 | 17,3 | 50,4 | 999,9 | 7,7 | 0,0 |
| 09:30 | 142,3 | 0,7 | 2,0 | 16,9 | 17,1 | 17,5 | 51,2 | 999,9 | 8,0 | 0,0 |
| 09:40 | 149,8 | 0,8 | 2,3 | 17,0 | 17,3 | 17,6 | 51,3 | 999,9 | 8,2 | 0,0 |
| 09:50 | 142,9 | 0,9 | 2,6 | 17,3 | 17,6 | 17,9 | 49,8 | 999,8 | 8,0 | 0,0 |
| 10:00 | 148,2 | 0,8 | 2,3 | 17,6 | 17,9 | 18,4 | 47,8 | 999,8 | 7,7 | 0,0 |
| 10:10 | 166,0 | 1,0 | 3,1 | 17,8 | 18,0 | 18,3 | 45,2 | 999,9 | 6,8 | 0,0 |
| 10:20 | 152,6 | 0,7 | 1,7 | 17,7 | 18,0 | 18,3 | 45,5 | 999,8 | 7,0 | 0,0 |
| 10:30 | 157,0 | 0,5 | 1,7 | 17,9 | 18,2 | 18,4 | 45,7 | 999,8 | 7,3 | 0,0 |
| 10:40 | 169,5 | 0,7 | 1,8 | 18,1 | 18,3 | 18,6 | 45,5 | 999,8 | 7,3 | 0,0 |
| 10:50 | 146,6 | 0,6 | 2,1 | 18,1 | 18,3 | 18,6 | 45,7 | 999,8 | 7,4 | 0,0 |
| 11:00 | 140,8 | 0,8 | 1,7 | 18,1 | 18,3 | 18,6 | 46,3 | 999,7 | 7,6 | 0,0 |
| 11:10 | 147,8 | 0,8 | 3,6 | 18,1 | 18,3 | 18,6 | 46,7 | 999,7 | 7,6 | 0,0 |
| 11:20 | 191,1 | 0,9 | 2,3 | 18,2 | 18,4 | 18,6 | 46,2 | 999,7 | 7,5 | 0,0 |
| 11:30 | 195,3 | 1,1 | 3,8 | 18,2 | 18,6 | 18,9 | 45,3 | 999,7 | 7,4 | 0,0 |
| 11:40 | 199,6 | 1,5 | 4,7 | 18,7 | 18,9 | 19,0 | 43,8 | 999,8 | 7,0 | 0,0 |
| 11:50 | 194,6 | 1,3 | 3,3 | 18,8 | 19,0 | 19,2 | 43,7 | 999,7 | 7,1 | 0,0 |
| 12:00 | 194,1 | 1,4 | 3,2 | 18,9 | 19,3 | 19,7 | 44,0 | 999,7 | 7,5 | 0,0 |
| 12:10 | 204,3 | 1,1 | 2,9 | 19,4 | 19,6 | 19,7 | 44,2 | 999,6 | 7,8 | 0,0 |
| 12:20 | 193,6 | 1,2 | 3,7 | 19,4 | 19,6 | 19,7 | 44,7 | 999,6 | 8,0 | 0,0 |
| 12:30 | 226,5 | 1,0 | 3,0 | 19,1 | 19,4 | 19,6 | 46,3 | 999,6 | 8,4 | 0,0 |
| 12:40 | 229,4 | 1,5 | 4,1 | 19,0 | 19,4 | 19,7 | 46,2 | 999,6 | 8,3 | 0,0 |
| 12:50 | 226,0 | 1,3 | 3,8 | 19,1 | 19,4 | 19,6 | 46,5 | 999,6 | 8,4 | 0,0 |
| 13:00 | 240,0 | 1,6 | 3,6 | 18,5 | 18,9 | 19,3 | 47,4 | 999,6 | 8,3 | 0,0 |
| 13:10 | 239,3 | 1,2 | 4,6 | 18,4 | 18,8 | 19,0 | 47,4 | 999,6 | 8,2 | 0,0 |
| 13:20 | 220,5 | 0,9 | 2,8 | 18,4 | 18,9 | 19,2 | 48,5 | 999,6 | 8,7 | 0,0 |
| 13:30 | 244,0 | 1,3 | 3,9 | 17,7 | 18,4 | 18,9 | 53,1 | 999,8 | 9,7 | 0,0 |
| 13:40 | 233,5 | 1,5 | 3,2 | 15,8 | 16,6 | 17,7 | 62,4 | 999,9 | 10,4 | 0,0 |
| 13:50 | 147,8 | 0,5 | 1,4 | 15,7 | 15,9 | 16,1 | 67,7 | 999,9 | 11,3 | 0,0 |
| 14:00 | 255,2 | 0,3 | 1,1 | 15,8 | 16,0 | 16,3 | 71,3 | 999,9 | 12,3 | 0,0 |
| 14:10 | 278,8 | 0,4 | 1,0 | 15,8 | 16,0 | 16,2 | 76,8 | 999,9 | 13,5 | 0,0 |
| 14:20 | 295,3 | 0,2 | 0,6 | 15,8 | 16,0 | 16,3 | 76,9 | 999,8 | 13,5 | 0,0 |
| 14:30 | 270,6 | 0,4 | 1,1 | 16,1 | 16,4 | 16,7 | 75,9 | 999,7 | 13,7 | 0,0 |
| 14:40 | 252,3 | 0,3 | 0,8 | 15,9 | 16,1 | 16,6 | 74,7 | 999,7 | 13,2 | 0,0 |
| 14:50 | 290,6 | 0,3 | 1,1 | 16,4 | 16,5 | 16,7 | 75,5 | 999,6 | 13,7 | 0,0 |
| 15:00 | 242,4 | 0,5 | 1,3 | 16,0 | 16,3 | 16,6 | 74,2 | 999,6 | 13,2 | 0,0 |
| 15:10 | 258,3 | 0,4 | 1,0 | 15,7 | 15,9 | 16,1 | 75,8 | 999,7 | 13,1 | 0,0 |
| 15:20 | 253,8 | 0,3 | 0,9 | 15,5 | 15,7 | 15,9 | 78,3 | 999,6 | 13,5 | 0,0 |
| 15:30 | 251,2 | 0,5 | 1,4 | 15,0 | 15,4 | 15,6 | 79,2 | 999,6 | 13,3 | 0,0 |
| 15:40 | 246,8 | 0,2 | 0,7 | 15,0 | 15,2 | 15,4 | 78,6 | 999,7 | 13,1 | 0,0 |
| 15:50 | 251,2 | 0,1 | 0,6 | 15,3 | 15,4 | 15,6 | 79,9 | 999,6 | 13,7 | 0,0 |
| Uhrzeit (MEZ) | Windrichtung in Grad | Windgeschw. in m/s | Windspitzen in m/s | Temp.Minima in °C | Temperatur in °C | Temp.Maxima in °C | Luftfeuchte in % | Luftdruck in hPa | Taupunkt in °C | Niederschlag in mm |
|---|---|---|---|---|---|---|---|---|---|---|
| 16:00 | 251,0 | 0,3 | 1,0 | 15,5 | 15,7 | 15,9 | 77,1 | 999,7 | 13,2 | 0,0 |
| 16:10 | 30,5 | 0,1 | 0,7 | 15,6 | 15,8 | 16,1 | 77,4 | 999,6 | 13,5 | 0,0 |
| 16:20 | 17,7 | 0,5 | 1,2 | 15,7 | 15,9 | 16,1 | 75,8 | 999,6 | 13,2 | 0,0 |
| 16:30 | 356,8 | 0,2 | 0,9 | 15,5 | 15,6 | 15,8 | 76,3 | 999,6 | 13,0 | 0,0 |
| 16:40 | 185,2 | 0,3 | 0,8 | 15,6 | 15,7 | 15,9 | 76,6 | 999,6 | 13,2 | 0,0 |
| 16:50 | 164,8 | 0,4 | 1,0 | 15,5 | 15,7 | 15,9 | 77,5 | 999,8 | 13,3 | 0,0 |
| 17:00 | 140,3 | 0,5 | 1,5 | 15,0 | 15,3 | 15,7 | 80,8 | 999,8 | 13,6 | 0,0 |
| 17:10 | 161,9 | 0,7 | 1,8 | 14,8 | 15,0 | 15,3 | 82,1 | 999,8 | 13,5 | 0,0 |
| 17:20 | 188,8 | 0,4 | 1,1 | 14,6 | 14,7 | 14,9 | 82,7 | 999,8 | 13,4 | 0,0 |
| 17:30 | 151,6 | 0,4 | 1,3 | 14,6 | 14,8 | 15,1 | 82,5 | 999,7 | 13,5 | 0,0 |
| 17:40 | 116,1 | 0,4 | 1,1 | 14,6 | 14,8 | 15,0 | 83,6 | 999,6 | 13,6 | 0,0 |
| 17:50 | 242,6 | 0,3 | 0,8 | 14,6 | 14,7 | 14,9 | 85,0 | 999,6 | 13,9 | 0,0 |
| 18:00 | 235,2 | 0,2 | 0,6 | 14,5 | 14,6 | 14,7 | 86,1 | 999,5 | 14,0 | 0,0 |
| 18:10 | 211,8 | 0,3 | 0,9 | 14,6 | 14,7 | 14,8 | 84,1 | 999,5 | 13,7 | 0,0 |
| 18:20 | 165,7 | 0,5 | 1,4 | 14,7 | 14,8 | 15,1 | 79,9 | 999,5 | 12,9 | 0,0 |
| 18:30 | 193,1 | 0,5 | 1,8 | 14,8 | 15,0 | 15,3 | 77,9 | 999,5 | 12,7 | 0,0 |
| 18:40 | 205,7 | 0,5 | 1,2 | 14,9 | 15,1 | 15,3 | 77,3 | 999,5 | 12,7 | 0,0 |
| 18:50 | 210,4 | 0,4 | 1,0 | 15,0 | 15,2 | 15,4 | 76,9 | 999,4 | 12,7 | 0,0 |
| 19:00 | 226,6 | 0,4 | 1,2 | 15,1 | 15,2 | 15,4 | 76,9 | 999,4 | 12,7 | 0,0 |
| 19:10 | 235,5 | 0,7 | 2,0 | 14,9 | 15,1 | 15,5 | 76,6 | 999,5 | 12,5 | 0,0 |
| 19:20 | 240,9 | 0,7 | 2,3 | 14,8 | 15,0 | 15,3 | 75,5 | 999,6 | 12,1 | 0,0 |
| 19:30 | 232,1 | 0,8 | 2,4 | 14,7 | 14,9 | 15,1 | 75,2 | 999,8 | 11,9 | 0,0 |
| 19:40 | 222,8 | 0,7 | 2,8 | 14,7 | 14,9 | 15,2 | 72,7 | 999,9 | 11,5 | 0,0 |
| 19:50 | 220,3 | 0,8 | 1,8 | 14,9 | 15,0 | 15,2 | 71,4 | 1000,0 | 11,3 | 0,0 |
| 20:00 | 230,0 | 0,8 | 2,2 | 14,6 | 14,9 | 15,2 | 70,8 | 1000,0 | 11,0 | 0,0 |
| 20:10 | 233,3 | 0,8 | 3,2 | 14,7 | 14,9 | 15,1 | 70,7 | 1000,0 | 10,9 | 0,0 |
| 20:20 | 207,8 | 0,7 | 1,6 | 14,5 | 14,7 | 14,9 | 71,2 | 1000,1 | 11,0 | 0,0 |
| 20:30 | 191,8 | 0,7 | 1,6 | 14,6 | 14,8 | 15,0 | 71,1 | 1000,0 | 11,0 | 0,0 |
| 20:40 | 174,7 | 0,5 | 1,4 | 14,4 | 14,6 | 14,8 | 71,3 | 1000,1 | 10,9 | 0,0 |
| 20:50 | 131,6 | 0,4 | 1,4 | 14,2 | 14,4 | 14,7 | 71,6 | 1000,2 | 10,9 | 0,0 |
| 21:00 | 203,0 | 0,2 | 0,6 | 14,0 | 14,2 | 14,4 | 72,6 | 1000,2 | 11,0 | 0,0 |
| 21:10 | 209,8 | 0,2 | 1,1 | 13,7 | 13,9 | 14,1 | 73,7 | 1000,1 | 10,8 | 0,0 |
| 21:20 | 207,5 | 0,6 | 1,4 | 13,5 | 13,7 | 13,9 | 74,1 | 1000,1 | 10,6 | 0,0 |
| 21:30 | 229,4 | 0,6 | 1,6 | 13,3 | 13,4 | 13,7 | 75,0 | 1000,1 | 10,6 | 0,0 |
| 21:40 | 232,8 | 0,5 | 1,4 | 13,0 | 13,2 | 13,5 | 76,1 | 1000,1 | 10,6 | 0,0 |
| 21:50 | 215,2 | 0,5 | 1,7 | 13,0 | 13,2 | 13,4 | 76,4 | 1000,2 | 10,6 | 0,0 |
| 22:00 | 167,6 | 0,5 | 1,5 | 13,0 | 13,2 | 13,4 | 76,2 | 1000,3 | 10,6 | 0,0 |
| 22:10 | 171,3 | 0,6 | 1,3 | 13,1 | 13,3 | 13,4 | 75,6 | 1000,3 | 10,5 | 0,0 |
| 22:20 | 207,8 | 0,5 | 1,5 | 13,1 | 13,3 | 13,4 | 75,6 | 1000,3 | 10,5 | 0,0 |
| 22:30 | 230,8 | 0,7 | 1,5 | 13,1 | 13,3 | 13,4 | 75,5 | 1000,3 | 10,5 | 0,0 |
| 22:40 | 241,5 | 0,8 | 1,8 | 13,0 | 13,2 | 13,4 | 76,2 | 1000,3 | 10,5 | 0,0 |
| 22:50 | 242,7 | 0,7 | 1,7 | 12,9 | 13,0 | 13,3 | 76,4 | 1000,3 | 10,4 | 0,0 |
| 23:00 | 195,1 | 0,6 | 1,5 | 12,8 | 13,0 | 13,2 | 76,5 | 1000,4 | 10,4 | 0,0 |
| 23:10 | 219,1 | 0,6 | 1,9 | 13,0 | 13,1 | 13,4 | 75,4 | 1000,5 | 10,4 | 0,0 |
| 23:20 | 208,9 | 0,4 | 1,3 | 13,0 | 13,1 | 13,4 | 75,2 | 1000,3 | 10,4 | 0,0 |
| 23:30 | 223,1 | 0,3 | 0,8 | 12,9 | 13,0 | 13,2 | 75,4 | 1000,2 | 10,4 | 0,0 |
| 23:40 | 240,4 | 0,4 | 0,8 | 12,4 | 12,7 | 13,0 | 76,8 | 1000,2 | 10,3 | 0,0 |
| 23:50 | 224,5 | 0,3 | 1,0 | 12,1 | 12,2 | 12,4 | 78,5 | 1000,2 | 10,2 | 0,0 |
| << 2.5. | 4.5. >> |